StationID,Date,MaxTemp,MinTemp,Precipitation,Snowfall,SnowDepth
"CA002100164","1975-05-01",57.02,24.08,0.00,0.00,
"CA002100164","1975-05-02",60.98,24.08,0.00,0.00,
"CA002100164","1975-05-03",64.04,24.98,0.00,0.00,
"CA002100164","1975-05-04",51.08,30.02,25.00,0.00,
"CA002100164","1975-05-05",42.98,30.02,15.00,0.00,
"CA002100164","1975-05-06",51.08,30.02,0.00,0.00,
"CA002100164","1975-05-07",51.98,24.08,,0.00,
"CA002100164","1975-05-08",64.04,,,0.00,
"CA002100164","1975-05-09",69.98,24.08,0.00,0.00,
"CA002100164","1975-05-10",75.02,30.92,0.00,0.00,
"CA002100164","1975-05-11",75.92,30.92,0.00,0.00,
"CA002100164","1975-05-12",69.98,37.94,0.00,0.00,
"CA002100164","1975-05-13",48.92,42.08,0.00,0.00,
"CA002100164","1975-05-14",57.92,35.96,0.00,0.00,
"CA002100164","1975-05-15",62.06,37.04,0.00,0.00,
"CA002100164","1975-05-16",53.06,35.96,74.00,0.00,
"CA002100164","1975-05-17",57.92,33.98,15.00,0.00,
"CA002100164","1975-05-18",55.04,35.96,0.00,0.00,
"CA002100164","1975-05-19",53.06,30.02,0.00,0.00,
"CA002100164","1975-05-20",57.92,28.04,0.00,0.00,
"CA002100164","1975-05-21",55.04,35.96,20.00,0.00,
"CA002100164","1975-05-22",57.92,33.08,,0.00,
"CA002100164","1975-05-23",59.00,35.06,0.00,0.00,
"CA002100164","1975-05-24",60.98,28.04,15.00,0.00,
"CA002100164","1975-05-25",71.96,30.92,0.00,0.00,
"CA002100164","1975-05-26",71.96,30.92,0.00,0.00,
"CA002100164","1975-05-27",69.08,39.02,0.00,0.00,
"CA002100164","1975-05-28",66.02,41.00,53.00,0.00,
"CA002100164","1975-05-29",64.04,41.00,46.00,0.00,
"CA002100164","1975-05-30",59.00,46.04,18.00,0.00,
"CA002100164","1975-05-31",66.92,39.92,0.00,0.00,
"CA002100164","1975-06-01",71.96,35.06,0.00,0.00,
"CA002100164","1975-06-02",71.06,48.92,36.00,0.00,
"CA002100164","1975-06-03",60.08,48.92,46.00,0.00,
"CA002100164","1975-06-04",60.98,42.98,13.00,0.00,
"CA002100164","1975-06-05",64.94,35.96,0.00,0.00,
"CA002100164","1975-06-06",69.08,32.00,0.00,0.00,
"CA002100164","1975-06-07",69.08,42.98,0.00,0.00,
"CA002100164","1975-06-08",66.92,33.08,5.00,0.00,
"CA002100164","1975-06-09",66.92,33.08,0.00,0.00,
"CA002100164","1975-06-10",66.02,44.96,10.00,0.00,
"CA002100164","1975-06-11",62.06,33.08,0.00,0.00,
"CA002100164","1975-06-12",69.98,32.00,0.00,0.00,
"CA002100164","1975-06-13",59.00,35.96,30.00,0.00,
"CA002100164","1975-06-14",60.98,44.06,18.00,0.00,
"CA002100164","1975-06-15",66.92,37.94,8.00,0.00,
"CA002100164","1975-06-16",75.92,44.06,0.00,0.00,
"CA002100164","1975-06-17",78.08,39.92,0.00,0.00,
"CA002100164","1975-06-18",80.96,46.04,0.00,0.00,
"CA002100164","1975-06-19",78.08,44.06,0.00,0.00,
"CA002100164","1975-06-20",71.96,42.98,0.00,0.00,
"CA002100164","1975-06-21",78.08,42.08,0.00,0.00,
"CA002100164","1975-06-22",80.96,41.00,56.00,0.00,
"CA002100164","1975-06-23",60.98,46.94,36.00,0.00,
"CA002100164","1975-06-24",69.98,46.94,0.00,0.00,
"CA002100164","1975-06-25",64.04,39.02,0.00,0.00,
"CA002100164","1975-06-26",78.08,46.04,0.00,0.00,
"CA002100164","1975-06-27",84.02,42.08,0.00,0.00,
"CA002100164","1975-06-28",,44.06,0.00,0.00,
"CA002100164","1975-06-29",89.96,57.02,0.00,0.00,
"CA002100164","1975-06-30",73.94,57.92,0.00,0.00,
"CA002100164","1975-07-01",64.04,51.08,53.00,0.00,
"CA002100164","1975-07-02",69.98,44.96,0.00,0.00,
"CA002100164","1975-07-03",82.04,41.00,0.00,0.00,
"CA002100164","1975-07-04",,,0.00,0.00,
"CA002100164","1975-07-05",77.00,48.92,0.00,0.00,
"CA002100164","1975-07-06",84.02,44.06,0.00,0.00,
"CA002100164","1975-07-07",86.00,41.00,0.00,0.00,
"CA002100164","1975-07-08",86.00,48.92,0.00,0.00,
"CA002100164","1975-07-09",82.94,50.00,0.00,0.00,
"CA002100164","1975-07-10",89.96,48.92,0.00,0.00,
"CA002100164","1975-07-11",89.06,48.02,23.00,0.00,
"CA002100164","1975-07-12",89.06,51.98,0.00,0.00,
"CA002100164","1975-07-13",78.98,55.94,0.00,0.00,
"CA002100164","1975-07-14",82.94,42.98,0.00,0.00,
"CA002100164","1975-07-15",80.06,51.08,0.00,0.00,
"CA002100164","1975-07-16",82.04,44.06,0.00,0.00,
"CA002100164","1975-07-17",84.02,50.00,0.00,0.00,
"CA002100164","1975-07-18",78.98,48.92,0.00,0.00,
"CA002100164","1975-07-19",77.00,53.06,86.00,0.00,
"CA002100164","1975-07-20",75.02,44.96,0.00,0.00,
"CA002100164","1975-07-21",66.92,48.92,8.00,0.00,
"CA002100164","1975-07-22",71.96,37.04,0.00,0.00,
"CA002100164","1975-07-23",77.00,39.02,28.00,0.00,
"CA002100164","1975-07-24",60.98,51.08,84.00,0.00,
"CA002100164","1975-07-25",60.08,51.08,20.00,0.00,
"CA002100164","1975-07-26",71.06,46.94,0.00,0.00,
"CA002100164","1975-07-27",71.06,46.94,64.00,0.00,
"CA002100164","1975-07-28",60.98,44.06,0.00,0.00,
"CA002100164","1975-07-29",66.02,32.00,0.00,0.00,
"CA002100164","1975-07-30",71.96,30.92,13.00,0.00,
"CA002100164","1975-07-31",55.94,48.92,239.00,0.00,
"CA002100164","1975-08-01",62.06,46.94,28.00,0.00,
"CA002100164","1975-08-02",69.98,37.04,0.00,0.00,
"CA002100164","1975-08-03",69.08,37.94,0.00,0.00,
"CA002100164","1975-08-04",66.02,44.06,0.00,0.00,
"CA002100164","1975-08-05",66.02,33.98,0.00,0.00,
"CA002100164","1975-08-06",66.02,33.08,20.00,0.00,
"CA002100164","1975-08-07",64.94,44.96,0.00,0.00,
"CA002100164","1975-08-08",62.06,35.96,0.00,0.00,
"CA002100164","1975-08-09",66.02,35.96,20.00,0.00,
"CA002100164","1975-08-10",60.98,44.96,0.00,0.00,
"CA002100164","1975-08-11",57.92,32.00,13.00,0.00,
"CA002100164","1975-08-12",71.06,35.06,0.00,0.00,
"CA002100164","1975-08-13",80.96,39.02,0.00,0.00,
"CA002100164","1975-08-14",78.08,41.00,0.00,0.00,
"CA002100164","1975-08-15",82.94,42.08,0.00,0.00,
"CA002100164","1975-08-16",75.92,39.02,0.00,0.00,
"CA002100164","1975-08-17",82.04,39.02,145.00,0.00,
"CA002100164","1975-08-18",73.04,48.02,0.00,0.00,
"CA002100164","1975-08-19",66.92,41.00,0.00,0.00,
"CA002100164","1975-08-20",64.04,39.02,13.00,0.00,
"CA002100164","1975-08-21",69.98,44.06,0.00,0.00,
"CA002100164","1975-08-22",69.08,37.94,0.00,0.00,
"CA002100164","1975-08-23",69.08,42.08,0.00,0.00,
"CA002100164","1975-08-24",69.98,35.06,0.00,0.00,
"CA002100164","1975-08-25",71.06,32.00,0.00,0.00,
"CA002100164","1975-08-26",59.00,35.06,33.00,0.00,
"CA002100164","1975-08-27",60.08,35.06,0.00,0.00,
"CA002100164","1975-08-28",59.00,28.94,0.00,0.00,
"CA002100164","1975-08-29",64.94,24.08,0.00,0.00,
"CA002100164","1975-08-30",69.08,26.06,0.00,0.00,
"CA002100164","1975-08-31",59.00,37.94,5.00,0.00,
"CA002100164","1975-09-01",60.08,39.02,3.00,0.00,
"CA002100164","1975-09-02",57.92,35.96,10.00,0.00,
"CA002100164","1975-09-03",64.04,35.06,0.00,0.00,
"CA002100164","1975-09-04",60.08,35.06,0.00,0.00,
"CA002100164","1975-09-05",64.94,30.02,0.00,0.00,
"CA002100164","1975-09-06",57.02,35.06,0.00,0.00,
"CA002100164","1975-09-07",59.00,28.94,0.00,0.00,
"CA002100164","1975-09-08",55.04,30.02,5.00,0.00,
"CA002100164","1975-09-09",57.92,26.06,0.00,0.00,
"CA002100164","1975-09-10",53.96,28.04,0.00,0.00,
"CA002100164","1975-09-11",53.06,39.92,142.00,0.00,
"CA002100164","1975-09-12",57.92,30.02,0.00,0.00,
"CA002100164","1975-09-13",59.00,26.06,0.00,0.00,
"CA002100164","1975-09-14",53.06,42.08,48.00,0.00,
"CA002100164","1975-09-15",60.08,39.92,0.00,0.00,
"CA002100164","1975-09-16",57.92,28.04,0.00,0.00,
"CA002100164","1975-09-17",57.02,26.96,0.00,0.00,
"CA002100164","1975-09-18",50.00,41.00,0.00,0.00,
"CA002100164","1975-09-19",64.04,30.92,0.00,0.00,
"CA002100164","1975-09-20",55.94,28.04,8.00,0.00,
"CA002100164","1975-09-21",48.92,30.92,0.00,0.00,
"CA002100164","1975-09-22",62.06,33.98,0.00,0.00,
"CA002100164","1975-09-23",60.98,30.02,0.00,0.00,
"CA002100164","1975-09-24",50.00,35.06,0.00,0.00,
"CA002100164","1975-09-25",42.98,33.08,36.00,36.00,
"CA002100164","1975-09-26",30.92,28.04,97.00,97.00,
"CA002100164","1975-09-27",33.08,24.08,0.00,0.00,
"CA002100164","1975-09-28",35.96,24.08,0.00,0.00,
"CA002100164","1975-09-29",48.92,26.06,0.00,0.00,
"CA002100164","1975-09-30",44.06,28.04,89.00,0.00,
"CA002100164","1975-10-01",53.96,28.04,0.00,0.00,
"CA002100164","1975-10-02",39.02,21.02,0.00,0.00,
"CA002100164","1975-10-03",48.02,30.02,10.00,0.00,
"CA002100164","1975-10-04",41.00,30.92,0.00,0.00,
"CA002100164","1975-10-05",42.98,32.00,0.00,0.00,
"CA002100164","1975-10-06",39.92,26.06,0.00,0.00,
"CA002100164","1975-10-07",42.08,28.94,10.00,10.00,
"CA002100164","1975-10-08",41.00,26.06,0.00,0.00,
"CA002100164","1975-10-09",35.06,17.06,0.00,0.00,
"CA002100164","1975-10-10",26.06,8.96,28.00,28.00,
"CA002100164","1975-10-11",35.06,19.94,0.00,0.00,
"CA002100164","1975-10-12",39.02,30.02,0.00,0.00,
"CA002100164","1975-10-13",44.96,30.02,0.00,0.00,
"CA002100164","1975-10-14",46.94,24.98,0.00,0.00,
"CA002100164","1975-10-15",41.00,24.08,0.00,0.00,
"CA002100164","1975-10-16",42.08,30.02,0.00,0.00,
"CA002100164","1975-10-17",42.08,26.06,0.00,0.00,
"CA002100164","1975-10-18",44.96,24.08,0.00,0.00,
"CA002100164","1975-10-19",37.94,23.00,0.00,0.00,
"CA002100164","1975-10-20",30.92,26.06,0.00,0.00,
"CA002100164","1975-10-21",28.04,15.08,51.00,51.00,
"CA002100164","1975-10-22",26.06,8.96,0.00,0.00,
"CA002100164","1975-10-23",30.02,8.96,0.00,0.00,
"CA002100164","1975-10-24",21.92,6.08,56.00,56.00,
"CA002100164","1975-10-25",28.04,10.04,0.00,0.00,
"CA002100164","1975-10-26",19.94,-0.04,0.00,0.00,
"CA002100164","1975-10-27",6.08,-14.98,0.00,0.00,
"CA002100164","1975-10-28",8.06,-9.94,0.00,0.00,
"CA002100164","1975-10-29",-0.04,-20.92,0.00,0.00,
"CA002100164","1975-10-30",-9.94,-22.00,0.00,0.00,
"CA002100164","1975-10-31",-11.92,-32.08,0.00,0.00,
"CA002100164","1976-05-01",64.04,28.04,0.00,0.00,
"CA002100164","1976-05-02",62.96,30.02,0.00,0.00,
"CA002100164","1976-05-03",55.04,32.00,0.00,0.00,
"CA002100164","1976-05-04",64.04,33.08,0.00,0.00,
"CA002100164","1976-05-05",60.08,28.94,0.00,0.00,
"CA002100164","1976-05-06",57.02,28.94,0.00,0.00,
"CA002100164","1976-05-07",57.92,33.98,0.00,0.00,
"CA002100164","1976-05-08",57.02,24.08,0.00,0.00,
"CA002100164","1976-05-09",51.98,24.08,0.00,0.00,
"CA002100164","1976-05-10",53.96,37.04,28.00,0.00,
"CA002100164","1976-05-11",51.98,30.92,0.00,0.00,
"CA002100164","1976-05-12",57.02,35.06,0.00,0.00,
"CA002100164","1976-05-13",53.96,33.08,18.00,0.00,
"CA002100164","1976-05-14",57.02,30.92,0.00,0.00,
"CA002100164","1976-05-15",57.02,26.96,86.00,0.00,
"CA002100164","1976-05-16",55.04,35.06,5.00,0.00,
"CA002100164","1976-05-17",60.08,26.96,0.00,0.00,
"CA002100164","1976-05-18",59.00,35.06,0.00,0.00,
"CA002100164","1976-05-19",64.94,33.08,3.00,0.00,
"CA002100164","1976-05-20",60.98,30.92,0.00,0.00,
"CA002100164","1976-05-21",64.94,28.94,0.00,0.00,
"CA002100164","1976-05-22",64.94,26.96,46.00,0.00,
"CA002100164","1976-05-23",60.08,42.98,8.00,0.00,
"CA002100164","1976-05-24",60.98,28.04,0.00,0.00,
"CA002100164","1976-05-25",66.92,28.94,0.00,0.00,
"CA002100164","1976-05-26",60.08,39.92,23.00,0.00,
"CA002100164","1976-05-27",51.98,39.02,56.00,0.00,
"CA002100164","1976-05-28",60.08,35.06,28.00,0.00,
"CA002100164","1976-05-29",51.08,35.06,5.00,0.00,
"CA002100164","1976-05-30",57.92,35.96,15.00,0.00,
"CA002100164","1976-05-31",71.06,30.92,0.00,0.00,
"CA002100164","1976-06-01",71.06,35.96,0.00,0.00,
"CA002100164","1976-06-02",71.06,33.08,0.00,0.00,
"CA002100164","1976-06-03",66.02,35.96,0.00,0.00,
"CA002100164","1976-06-04",68.00,30.92,0.00,0.00,
"CA002100164","1976-06-05",73.94,30.92,0.00,0.00,
"CA002100164","1976-06-06",73.04,35.06,0.00,0.00,
"CA002100164","1976-06-07",64.94,41.00,18.00,0.00,
"CA002100164","1976-06-08",62.96,44.96,127.00,0.00,
"CA002100164","1976-06-09",62.96,41.00,8.00,0.00,
"CA002100164","1976-06-10",73.04,39.92,0.00,0.00,
"CA002100164","1976-06-11",66.92,32.00,0.00,0.00,
"CA002100164","1976-06-12",69.08,28.94,0.00,0.00,
"CA002100164","1976-06-13",71.06,30.02,0.00,0.00,
"CA002100164","1976-06-14",78.08,30.02,0.00,0.00,
"CA002100164","1976-06-15",78.98,32.00,0.00,0.00,
"CA002100164","1976-06-16",80.96,41.00,0.00,0.00,
"CA002100164","1976-06-17",60.08,48.02,48.00,0.00,
"CA002100164","1976-06-18",60.08,41.00,124.00,0.00,
"CA002100164","1976-06-19",64.94,44.96,0.00,0.00,
"CA002100164","1976-06-20",71.06,37.94,0.00,0.00,
"CA002100164","1976-06-21",69.98,37.94,0.00,0.00,
"CA002100164","1976-06-22",66.92,42.08,0.00,0.00,
"CA002100164","1976-06-23",75.92,42.98,0.00,0.00,
"CA002100164","1976-06-24",82.94,39.02,0.00,0.00,
"CA002100164","1976-06-25",77.00,44.06,0.00,0.00,
"CA002100164","1976-06-26",77.00,48.02,0.00,0.00,
"CA002100164","1976-06-27",80.06,39.92,0.00,0.00,
"CA002100164","1976-06-28",78.08,44.06,10.00,0.00,
"CA002100164","1976-06-29",75.02,42.98,51.00,0.00,
"CA002100164","1976-06-30",73.04,46.94,46.00,0.00,
